EETUULOO

Guest
Details From EETU - TARTU
To ULOO - PSKOV
Flight Number -
Tags generated
Created
Modified
Stats Distance 63 nm / 116 km
Max Altitude 0 ft / 0 m
Waypoints 2
Social Downloads 2
Likes 0
Share

Download

Looking for another format? Having issues loading an existing format? Contact us
Advertisement - Login to hide

Notes

Basic altitude profile: - Ascent Rate: 2500ft/min - Ascent Speed: 250kts - Cruise Altitude: 35000ft - Cruise Speed: 420kts - Descent Rate: 1500ft/min - Descent Speed: 250kts Options: - Use NATs: yes - Use PACOTS: yes - Use low airways: yes - Use high airways: yes

Route

EETU ULOO

ID Type Via Altitude (ft/m) Position (lat/lon) Dist (leg/tot) Name
O EETU APT - 0 / 0 58.30746 / 26.69043 - / 0 nm TARTU
O ULOO APT - 0 / 0 57.78387 / 28.39647 62 / 62 nm PSKOV

Altitude Profile

Advertisement - Login to hide

EETU

Details ICAO EETU (TAY)
Name TARTU
Region Estonia
Timezone Europe/Tallinn (UTC+3.0)
Stats Elevation 219 ft / 67 m (AMSL)
Location 58.307400° 26.686900°
Runways 1
Magnetic Variation 9.593° E

METAR

EETU 210850Z 08016KT 060V120 9999 FEW045 15/04 Q1007

Decode

TAF

Not found

Departure Runways

ID Width Length Bearing (true/mag) Surface Threshold Overrun Markings Lighting
08 102 ft / 31 m 5,908 ft / 1,801 m 88.41° / 78.82° ASPHALT 0 ft / 0 m 0 ft / 0 m PREC-APP CENTERLINE EDGE THRESHOLD SALS
26 102 ft / 31 m 5,908 ft / 1,801 m 268.44° / 258.84° ASPHALT 0 ft / 0 m 0 ft / 0 m PREC-APP CENTERLINE EDGE THRESHOLD ALSF-I

ULOO

Details ICAO ULOO (PKV)
Name Pskov
Region Russia
Timezone Europe/Moscow (UTC+3.0)
Stats Elevation 154 ft / 47 m (AMSL)
Location 57.781900° 28.394200°
Runways 2
Magnetic Variation 9.964° E

METAR

ULOO 210900Z 09006G11MPS 040V140 9999 FEW047 15/03 Q1007 R01/190055 NOSIG RMK QFE751

Decode

TAF

Not found

Destination Runways

ID Width Length Bearing (true/mag) Surface Threshold Overrun Markings Lighting
01 144 ft / 44 m 8,270 ft / 2,521 m 18.01° / 8.05° CONCRETE 0 ft / 0 m 0 ft / 0 m PREC-APP EDGE THRESHOLD ALSF-I REIL-OMNI
01R 164 ft / 50 m 5,730 ft / 1,746 m 17.84° / 7.88° GRASS 0 ft / 0 m 0 ft / 0 m NONE
19 144 ft / 44 m 8,270 ft / 2,521 m 198.03° / 188.06° CONCRETE 0 ft / 0 m 0 ft / 0 m PREC-APP EDGE THRESHOLD ALSF-I REIL-OMNI
19L 164 ft / 50 m 5,730 ft / 1,746 m 197.85° / 187.89° GRASS 0 ft / 0 m 0 ft / 0 m NONE

Popular Alternatives